Date String (YYYY-MM-DD hh:mm:ss) UTC,Instrument flags,Ambient pressure (hPa),Sample flow (lpm),Bypass flow (lpm),Sample temperature (°C),Ambient temperature (°C),ASC tube jacket temperature (°C),LED temperature (°C),Box temperature (°C),Sample RH (%),Span deviation,Mass concentration (μg/m³),Mass concentration (μg/m³),Mass concentration (μg/m³)
DateTimeUTC,F1_M11,P_M11,Q1_M11,Q2_M11,T1_M11,T2_M11,T3_M11,T4_M11,T5_M11,U1_M11,ZSPAN_M11,X0_M11,X2_M11,X1_M11
2022-12-22 21:00:00,,0829.0,4.97,0.00,21.1,21.0,00.0,29.8,22.7,02.6,0002.8,0013.75,0007.11,0006.36
2022-12-22 21:01:00,,0829.0,5.02,0.00,21.2,21.4,00.0,29.8,22.9,02.6,0003.0,0013.77,0007.11,0006.35
2022-12-22 21:02:00,,0828.9,4.97,0.00,21.1,20.6,00.0,29.9,22.7,02.6,0002.9,0013.98,0007.10,0006.34
2022-12-22 21:03:00,,0828.9,5.04,0.00,21.0,19.7,00.0,29.9,22.5,02.7,0002.6,0013.64,0007.13,0006.36
2022-12-22 21:04:00,,0828.8,4.97,0.00,20.9,19.0,00.0,29.9,22.2,02.7,0002.7,0013.41,0007.09,0006.34
2022-12-22 21:05:00,,0829.2,4.98,0.00,20.8,18.7,00.0,29.9,22.1,02.7,0003.0,0012.88,0007.07,0006.34
2022-12-22 21:06:00,,0829.2,5.03,0.00,20.9,19.9,00.0,29.8,22.4,02.7,0002.9,0013.35,0007.09,0006.35
2022-12-22 21:07:00,,0829.2,4.97,0.00,21.0,21.1,00.0,29.8,22.7,02.7,0003.1,0013.31,0007.09,0006.35
2022-12-22 21:08:00,,0829.2,5.04,0.00,21.2,21.8,00.0,29.8,23.0,02.7,0003.3,0013.50,0007.13,0006.37
2022-12-22 21:09:00,,0829.0,4.96,0.00,21.2,21.4,00.0,29.9,23.0,02.7,0003.2,0013.60,0007.21,0006.40
2022-12-22 21:10:00,,0829.0,5.03,0.00,21.1,20.4,00.0,29.9,22.7,02.7,0003.1,0013.43,0007.21,0006.41
2022-12-22 21:11:00,,0828.8,5.01,0.00,21.0,19.6,00.0,29.9,22.4,02.7,0002.8,0013.54,0007.24,0006.44
2022-12-22 21:12:00,,0828.8,4.96,0.00,20.9,18.9,00.0,29.9,22.2,02.7,0002.3,0013.31,0007.26,0006.45
2022-12-22 21:13:00,,0829.3,5.02,0.00,20.9,19.4,00.0,29.8,22.2,02.7,0002.3,0013.44,0007.26,0006.45
2022-12-22 21:14:00,,0828.7,5.03,0.00,21.0,20.6,00.0,29.8,22.6,02.7,0002.1,0013.52,0007.26,0006.43
2022-12-22 21:15:00,,0828.7,4.97,0.00,21.1,21.5,00.0,29.8,22.9,02.7,0001.7,0014.10,0007.29,0006.45
2022-12-22 21:16:00,,0829.1,5.04,0.00,21.2,21.1,00.0,29.9,22.8,02.7,0001.9,0014.29,0007.31,0006.46
2022-12-22 21:17:00,,0828.7,4.96,0.00,21.1,20.3,00.0,29.9,22.7,02.7,0001.8,0013.83,0007.35,0006.48
2022-12-22 21:18:00,,0828.8,5.03,0.00,21.0,19.6,00.0,29.9,22.4,02.7,0001.8,0014.32,0007.37,0006.51
2022-12-22 21:19:00,,0829.2,5.00,0.00,20.9,18.9,00.0,29.9,22.1,02.7,0001.8,0014.66,0007.40,0006.53
2022-12-22 21:20:00,,0828.8,4.98,0.00,20.8,19.5,00.0,29.8,22.2,02.7,0001.7,0014.39,0007.39,0006.53
2022-12-22 21:21:00,,0828.9,5.04,0.00,21.0,20.8,00.0,29.8,22.6,02.7,0001.5,0013.89,0007.37,0006.53
2022-12-22 21:22:00,,0829.0,4.97,0.00,21.1,21.7,00.0,29.8,22.9,02.7,0001.5,0013.82,0007.37,0006.53
2022-12-22 21:23:00,,0829.1,5.03,0.00,21.2,21.8,00.0,29.9,23.0,02.7,0001.6,0013.87,0007.37,0006.52
2022-12-22 21:24:00,,0828.9,4.96,0.00,21.2,20.9,00.0,29.9,22.8,02.7,0001.4,0013.71,0007.38,0006.53
2022-12-22 21:25:00,,0828.8,5.03,0.00,21.1,20.2,00.0,29.9,22.7,02.7,0001.5,0013.48,0007.39,0006.56
2022-12-22 21:26:00,,0828.9,4.98,0.00,21.1,19.6,00.0,30.0,22.5,02.7,0001.4,0013.12,0007.39,0006.57
2022-12-22 21:27:00,,0828.9,4.98,0.00,21.0,19.2,00.0,29.9,22.4,02.7,0001.2,0012.72,0007.37,0006.58
2022-12-22 21:28:00,,0828.9,5.04,0.00,21.0,19.9,00.0,29.9,22.5,02.8,0000.8,0012.66,0007.34,0006.58
2022-12-22 21:29:00,,0828.9,4.97,0.00,21.1,21.1,00.0,29.9,22.8,02.7,0001.2,0012.67,0007.34,0006.58
2022-12-22 21:30:00,,0829.1,5.04,0.00,21.3,21.8,00.0,29.9,23.1,02.7,0000.7,0012.43,0007.30,0006.56
2022-12-22 21:31:00,,0828.9,4.96,0.00,21.3,21.2,00.0,29.9,23.0,02.7,0000.8,0012.94,0007.27,0006.56
2022-12-22 21:32:00,,0828.9,5.05,0.00,21.2,20.3,00.0,30.0,22.8,02.7,0001.1,0013.06,0007.24,0006.56
2022-12-22 21:33:00,,0829.0,5.03,0.00,21.1,19.5,00.0,30.0,22.5,02.7,0001.2,0013.69,0007.21,0006.56
2022-12-22 21:34:00,,0829.4,4.97,0.00,21.0,19.0,00.0,30.0,22.4,02.7,0001.5,0013.67,0007.22,0006.58
2022-12-22 21:35:00,,0829.0,4.98,0.00,21.0,19.0,00.0,29.9,22.3,02.7,0001.8,0013.73,0007.25,0006.61
2022-12-22 21:36:00,,0828.8,5.04,0.00,21.0,20.2,00.0,29.9,22.6,02.7,0002.1,0013.71,0007.26,0006.63
2022-12-22 21:37:00,,0829.2,4.96,0.00,21.2,21.3,00.0,29.8,22.9,02.7,0002.7,0013.68,0007.27,0006.63
2022-12-22 21:38:00,,0829.1,5.03,0.00,21.3,21.4,00.0,29.9,23.0,02.7,0003.0,0013.75,0007.30,0006.64
2022-12-22 21:39:00,,0829.1,4.98,0.00,21.2,20.6,00.0,30.0,22.8,02.7,0003.2,0013.88,0007.33,0006.65
2022-12-22 21:40:00,,0829.1,4.98,0.00,21.1,19.9,00.0,30.0,22.6,02.7,0003.3,0013.47,0007.35,0006.65
2022-12-22 21:41:00,,0829.2,5.03,0.00,21.0,19.3,00.0,30.0,22.4,02.7,0003.4,0013.32,0007.40,0006.65
2022-12-22 21:42:00,,0829.3,5.00,0.00,21.0,19.3,00.0,29.9,22.4,02.8,0003.6,0012.63,0007.40,0006.66
2022-12-22 21:43:00,,0829.2,4.97,0.00,21.1,20.5,00.0,29.9,22.7,02.8,0003.6,0012.57,0007.49,0006.68
2022-12-22 21:44:00,,0828.9,5.04,0.00,21.2,21.4,00.0,29.9,23.0,02.8,0003.6,0011.96,0007.54,0006.71
2022-12-22 21:45:00,,0828.9,4.96,0.00,21.3,21.5,00.0,29.9,23.0,02.7,0003.4,0012.01,0007.55,0006.71
2022-12-22 21:46:00,,0828.9,5.04,0.00,21.2,20.6,00.0,30.0,22.8,02.7,0003.3,0011.96,0007.53,0006.71
2022-12-22 21:47:00,,0828.8,4.97,0.00,21.2,19.8,00.0,30.0,22.6,02.8,0003.2,0012.14,0007.54,0006.73
2022-12-22 21:48:00,,0828.8,4.98,0.00,21.1,19.2,00.0,30.0,22.4,02.8,0002.9,0012.70,0007.57,0006.76
2022-12-22 21:49:00,,0828.9,5.02,0.00,20.9,18.7,00.0,29.9,22.2,02.8,0002.8,0012.71,0007.59,0006.78
2022-12-22 21:50:00,,0828.9,5.02,0.00,20.9,19.7,00.0,29.9,22.4,02.8,0002.8,0012.63,0007.59,0006.81
2022-12-22 21:51:00,,0828.9,4.96,0.00,21.1,21.0,00.0,29.8,22.8,02.8,0002.6,0012.67,0007.62,0006.84
2022-12-22 21:52:00,,0828.9,5.04,0.00,21.2,21.7,00.0,29.9,23.0,02.8,0002.7,0012.61,0007.63,0006.87
2022-12-22 21:53:00,,0829.2,4.96,0.00,21.2,21.1,00.0,29.9,22.9,02.8,0002.5,0012.68,0007.68,0006.91
2022-12-22 21:54:00,,0828.9,5.04,0.00,21.2,20.3,00.0,30.0,22.8,02.8,0002.3,0012.78,0007.69,0006.91
2022-12-22 21:55:00,,0829.1,4.99,0.00,21.1,19.6,00.0,30.0,22.5,02.8,0001.9,0012.86,0007.71,0006.92
2022-12-22 21:56:00,,0829.0,4.97,0.00,21.0,18.8,00.0,30.0,22.2,02.8,0002.3,0013.42,0007.75,0006.95
2022-12-22 21:57:00,,0828.9,5.03,0.00,20.9,18.9,00.0,29.9,22.2,02.8,0002.5,0013.81,0007.77,0006.97
2022-12-22 21:58:00,,0829.1,5.03,0.00,21.0,20.3,00.0,29.8,22.5,02.8,0002.4,0013.76,0007.81,0006.99
2022-12-22 21:59:00,,0829.0,4.96,0.00,21.1,21.4,00.0,29.8,22.9,02.8,0002.6,0013.43,0007.85,0007.00
